Location: Doussal
(55.6167°N, 116.8333°W)
Time: 19:35:24
(UTC+00:00)

ITUPSAT 1 - Visible Passes

Search period start: 05 December 2024 00:00
Search period end: 15 December 2024 00:00
Orbit: 691 x 702 km, 98.5° (Epoch: 05 December)

Date Brightness Start Highest point End Pass type
(mag) Time Alt. Az. Time Alt. Az. Time Alt. Az.
06 Dec ? 15:05:44 10° E 15:08:15 14° NE 15:10:46 10° NNE visible
08 Dec ? 14:51:25 10° ENE 14:53:02 12° NE 14:54:39 10° NNE visible
11 Dec ? 15:15:19 10° E 15:18:13 16° NE 15:21:06 10° NNE visible
13 Dec ? 15:00:43 10° ENE 15:02:55 13° NE 15:05:06 10° NNE visible
